Preview of NWS' New Version of Forecast
This preview is not operational and should not be used for support decisions.

Regional Weather Roundup (RWR)

Issued by National Weather Service (NWS)

                            
000
ASUS43 KLSX 200507
RWRMO 

WEATHER SUMMARY FOR MISSOURI
NATIONAL WEATHER SERVICE SPRINGFIELD MO
1200 AM CDT TUE AUG 20 2019

NOTE: "FAIR" INDICATES FEW OR NO CLOUDS BELOW 12,000 FEET WITH NO
       SIGNIFICANT WEATHER AND/OR OBSTRUCTIONS TO VISIBILITY.
       CURRENT SKY AND/OR WEATHER CONDITIONS ARE NOT AVAILABLE FOR
       CHILLICOTHE AND FARMINGTON.

MOZ001>031-035>038-043-044-053-054-200600-
...NORTHERN AND WESTERN MISSOURI...
  
CITY           SKY/WX    TMP DP  RH WIND       PRES   REMARKS
KANSAS CTY INT CLEAR     80  77  90 S9        29.98S                  
KANSAS C DTWN  CLEAR     87  76  69 VRB7      29.96S HX  97           
LEE'S SUMMIT   CLEAR     84  76  76 S8        29.99S HX  93           
ST JOSEPH      CLEAR     83  77  82 SE7       29.95F HX  92           
CHILLICOTHE      N/A     82  76  81 SE3       29.99F                  
KIRKSVILLE     CLEAR     77  73  87 E3        30.02S                  
     
$$
MOZ066>068-077>081-088>096-101>105-200600-
...SOUTHWEST MISSOURI...
  
CITY           SKY/WX    TMP DP  RH WIND       PRES   REMARKS
SPRINGFIELD    CLEAR     82  71  69 S9        30.04S                  
JOPLIN         CLEAR     81  71  71 S7        30.01S                  
               
$$
MOZ032>034-039>042-045>050-055>058-069>072-200600-
...CENTRAL MISSOURI...  
  
CITY           SKY/WX    TMP DP  RH WIND       PRES   REMARKS
COLUMBIA       CLEAR     80  75  84 SE6       30.02S                  
ROLLA          CLEAR     79  73  82 S9        30.05S                  
SEDALIA        CLEAR     78  77  96 SE3       30.02S                  
WHITEMAN AFB   CLEAR     79  79 100 SE3       29.97S                  
WARRENSBURG    CLEAR     79  75  89 SE3       30.00S                  
OSAGE BEACH    CLEAR     80  77  90 SE5       30.04R                  
               
$$
MOZ051-052-059>065-200600-
...EAST CENTRAL MISSOURI...
  
CITY           SKY/WX    TMP DP  RH WIND       PRES   REMARKS
ST LOUIS INTL  CLEAR     82  71  69 SW6       30.02R                  
SPIRIT OF STL  CLEAR     78  75  90 CALM      30.00S                  
ST CHARLES       N/A    N/A N/A N/A MISG      30.00S                  
                   
$$
MOZ072>076-082>087-097>100-106>115-200600-
...SOUTH CENTRAL AND SOUTHEAST MISSOURI...
  
CITY           SKY/WX    TMP DP  RH WIND       PRES   REMARKS
CAPE GIRARDEAU FAIR      78  73  84 CALM      30.01S                  
FARMINGTON     CLEAR     76  75  97 CALM      30.06S                  
POPLAR BLUFF   FAIR      78  76  93 CALM      30.02S FOG              
WEST PLAINS    CLEAR     80  73  79 S5        30.09S                  
                                       
$$